TimeEDT,TemperatureF,Dew PointF,Humidity,Sea Level PressureIn,VisibilityMPH,Wind Direction,Wind SpeedMPH,Gust SpeedMPH,PrecipitationIn,Events,Conditions,WindDirDegrees,DateUTC
12:15 AM,60.8,53.6,77,30.25,10.0,Calm,Calm,-,N/A,,Scattered Clouds,0,2013-05-18 04:15:00
12:35 AM,60.8,53.6,77,30.26,10.0,Calm,Calm,-,N/A,,Scattered Clouds,0,2013-05-18 04:35:00
12:55 AM,62.6,53.6,72,30.25,10.0,South,3.5,-,N/A,,Mostly Cloudy,170,2013-05-18 04:55:00
1:15 AM,60.8,55.4,82,30.25,10.0,South,8.1,-,N/A,,Overcast,170,2013-05-18 05:15:00
1:35 AM,57.2,57.2,100,30.24,5.0,South,8.1,-,N/A,,Overcast,170,2013-05-18 05:35:00
1:55 AM,57.2,57.2,100,30.24,2.5,South,8.1,-,N/A,,Mostly Cloudy,170,2013-05-18 05:55:00
2:15 AM,57.2,57.2,100,30.23,4.0,SSE,5.8,-,N/A,,Mostly Cloudy,160,2013-05-18 06:15:00
2:35 AM,57.2,57.2,100,30.23,7.0,SSE,5.8,-,N/A,,Mostly Cloudy,160,2013-05-18 06:35:00
2:55 AM,57.2,57.2,100,30.22,0.2,SSE,5.8,-,N/A,,Light Drizzle,160,2013-05-18 06:55:00
3:15 AM,57.2,57.2,100,30.23,7.0,South,8.1,-,N/A,,Mostly Cloudy,180,2013-05-18 07:15:00
3:35 AM,57.2,57.2,100,30.22,10.0,South,5.8,-,N/A,,Mostly Cloudy,170,2013-05-18 07:35:00
3:55 AM,57.2,57.2,100,30.23,10.0,South,6.9,-,N/A,,Mostly Cloudy,170,2013-05-18 07:55:00
4:15 AM,57.2,57.2,100,30.23,10.0,South,4.6,-,N/A,,Overcast,170,2013-05-18 08:15:00
4:35 AM,57.2,57.2,100,30.23,10.0,South,3.5,-,N/A,,Overcast,170,2013-05-18 08:35:00
4:55 AM,57.2,57.2,100,30.23,10.0,South,3.5,-,N/A,,Overcast,180,2013-05-18 08:55:00
5:15 AM,57.2,55.4,94,30.23,10.0,SSE,4.6,-,N/A,,Overcast,160,2013-05-18 09:15:00
5:35 AM,57.2,57.2,100,30.23,3.0,SSE,4.6,-,N/A,,Overcast,160,2013-05-18 09:35:00
5:55 AM,57.2,57.2,100,30.23,4.0,South,6.9,-,N/A,,Overcast,170,2013-05-18 09:55:00
6:15 AM,57.2,57.2,100,30.24,7.0,South,5.8,-,N/A,,Overcast,170,2013-05-18 10:15:00
6:35 AM,57.2,57.2,100,30.24,4.0,South,6.9,-,N/A,,Drizzle,170,2013-05-18 10:35:00
6:55 AM,57.2,57.2,100,30.25,5.0,South,8.1,-,N/A,,Overcast,180,2013-05-18 10:55:00
7:15 AM,57.2,57.2,100,30.26,10.0,South,9.2,-,N/A,,Light Drizzle,180,2013-05-18 11:15:00
7:35 AM,57.2,57.2,100,30.26,10.0,South,6.9,-,N/A,,Overcast,170,2013-05-18 11:35:00
7:55 AM,57.2,57.2,100,30.27,10.0,South,8.1,-,N/A,,Mostly Cloudy,170,2013-05-18 11:55:00
8:15 AM,57.2,57.2,100,30.27,10.0,SSE,8.1,-,N/A,,Overcast,150,2013-05-18 12:15:00
8:35 AM,57.2,57.2,100,30.27,0.2,SSE,6.9,-,N/A,Fog,Fog,150,2013-05-18 12:35:00
8:55 AM,57.2,57.2,100,30.28,0.2,SSE,8.1,-,N/A,,Drizzle,150,2013-05-18 12:55:00
9:15 AM,57.2,57.2,100,30.28,0.2,SSE,6.9,-,N/A,Rain,Rain,160,2013-05-18 13:15:00
9:35 AM,57.2,57.2,100,30.29,0.2,SSE,5.8,-,N/A,,Heavy Drizzle,160,2013-05-18 13:35:00
9:55 AM,57.2,57.2,100,30.29,0.2,SSE,8.1,-,N/A,,Heavy Drizzle,160,2013-05-18 13:55:00
10:15 AM,57.2,57.2,100,30.29,0.2,South,6.9,-,N/A,Rain,Light Rain,170,2013-05-18 14:15:00
10:35 AM,57.2,57.2,100,30.28,0.2,SE,6.9,-,N/A,,Drizzle,140,2013-05-18 14:35:00
10:55 AM,57.2,57.2,100,30.29,0.2,SE,8.1,-,N/A,Rain,Rain,130,2013-05-18 14:55:00
11:15 AM,57.2,57.2,100,30.28,0.2,ESE,5.8,-,N/A,Rain,Rain,120,2013-05-18 15:15:00
11:35 AM,57.2,57.2,100,30.28,0.2,SE,5.8,-,N/A,,Drizzle,140,2013-05-18 15:35:00
11:55 AM,57.2,57.2,100,30.28,0.2,SE,4.6,-,N/A,Rain,Light Rain,140,2013-05-18 15:55:00
12:15 PM,57.2,57.2,100,30.28,0.2,SE,4.6,-,N/A,,Drizzle,130,2013-05-18 16:15:00
12:35 PM,57.2,57.2,100,30.28,0.2,SSE,4.6,-,N/A,Rain,Light Rain,150,2013-05-18 16:35:00
12:55 PM,57.2,57.2,100,30.29,0.2,SE,3.5,-,N/A,,Light Drizzle,130,2013-05-18 16:55:00
1:15 PM,57.2,57.2,100,30.28,2.0,SE,4.6,-,N/A,,Overcast,140,2013-05-18 17:15:00
1:35 PM,57.2,57.2,100,30.28,5.0,SSE,5.8,-,N/A,,Overcast,160,2013-05-18 17:35:00
1:55 PM,59.0,59.0,100,30.27,3.0,SE,3.5,-,N/A,,Overcast,130,2013-05-18 17:55:00
2:15 PM,60.8,60.8,100,30.27,7.0,South,3.5,-,N/A,,Overcast,170,2013-05-18 18:15:00
2:35 PM,60.8,60.8,100,30.26,10.0,SSE,6.9,-,N/A,,Overcast,150,2013-05-18 18:35:00
3:15 PM,60.8,60.8,100,30.25,7.0,SE,5.8,-,N/A,,Overcast,130,2013-05-18 19:15:00
3:35 PM,62.6,60.8,94,30.25,10.0,SSE,6.9,-,N/A,,Overcast,160,2013-05-18 19:35:00
3:55 PM,60.8,60.8,100,30.24,7.0,SSE,6.9,-,N/A,,Overcast,150,2013-05-18 19:55:00
4:15 PM,60.8,60.8,100,30.24,7.0,South,3.5,-,N/A,,Overcast,170,2013-05-18 20:15:00
4:35 PM,60.8,60.8,100,30.24,7.0,SE,5.8,-,N/A,,Overcast,140,2013-05-18 20:35:00
4:55 PM,60.8,60.8,100,30.24,0.8,SE,5.8,-,N/A,,Overcast,140,2013-05-18 20:55:00
5:15 PM,60.8,60.8,100,30.23,0.2,SSE,6.9,-,N/A,Rain,Rain,150,2013-05-18 21:15:00
5:35 PM,60.8,60.8,100,30.23,2.0,South,6.9,-,N/A,,Overcast,170,2013-05-18 21:35:00
6:15 PM,60.8,59.0,94,30.23,2.5,ESE,5.8,-,N/A,,Overcast,120,2013-05-18 22:15:00
6:35 PM,59.0,59.0,100,30.23,0.5,SE,4.6,-,N/A,,Light Drizzle,140,2013-05-18 22:35:00
6:55 PM,59.0,59.0,100,30.24,0.5,SE,4.6,-,N/A,Fog,Fog,130,2013-05-18 22:55:00
7:15 PM,59.0,59.0,100,30.24,0.2,SE,6.9,-,N/A,Rain,Rain,140,2013-05-18 23:15:00
7:35 PM,57.2,57.2,100,30.24,0.2,SSE,5.8,-,N/A,,Heavy Drizzle,160,2013-05-18 23:35:00
7:55 PM,57.2,57.2,100,30.25,0.2,SE,6.9,-,N/A,,Heavy Drizzle,140,2013-05-18 23:55:00
8:15 PM,57.2,57.2,100,30.25,0.2,SE,4.6,-,N/A,Rain,Light Rain,140,2013-05-19 00:15:00
8:35 PM,57.2,57.2,100,30.25,0.2,SE,5.8,-,N/A,,Drizzle,140,2013-05-19 00:35:00
8:55 PM,57.2,57.2,100,30.25,0.2,ESE,6.9,-,N/A,,Heavy Drizzle,120,2013-05-19 00:55:00
9:15 PM,57.2,57.2,100,30.25,0.2,ESE,8.1,-,N/A,,Drizzle,120,2013-05-19 01:15:00
9:35 PM,57.2,57.2,100,30.26,0.2,ESE,5.8,-,N/A,,Heavy Drizzle,120,2013-05-19 01:35:00
9:55 PM,57.2,57.2,100,30.26,0.2,East,5.8,-,N/A,,Heavy Drizzle,100,2013-05-19 01:55:00
10:15 PM,57.2,57.2,100,30.26,0.2,East,6.9,-,N/A,,Heavy Drizzle,90,2013-05-19 02:15:00
10:35 PM,57.2,57.2,100,30.26,0.2,ESE,5.8,-,N/A,,Drizzle,120,2013-05-19 02:35:00
10:55 PM,57.2,57.2,100,30.25,0.2,ESE,6.9,-,0.01,Rain,Heavy Rain,110,2013-05-19 02:55:00
11:15 PM,57.2,57.2,100,30.24,0.2,ESE,5.8,-,0.01,Rain,Heavy Rain,110,2013-05-19 03:15:00
11:35 PM,57.2,57.2,100,30.24,0.2,ESE,6.9,-,0.02,,Heavy Drizzle,120,2013-05-19 03:35:00